Location: Étouvelles
(49.5207°N, 3.5808°E)
Time: 00:32:18
(UTC+00:00)

Cosmos 2278 Rocket - Pass Details

Date: 03 February 2023
Orbit: 841 x 845 km, 71.0° (Epoch: 21 March)

Event Time Altitude Azimuth Distance (km) Brightness Sun altitude
Rises 18:11:03 0° 334° (NNW) 3,417 5.6 -14.3°
Reaches altitude 10° 18:14:09 10° 350° (N) 2,478 4.7 -14.8°
Maximum altitude 18:18:24 21° 39° (NE) 1,814 3.5 -15.5°
Enters shadow 18:19:31 20° 55° (NE) 1,866 3.5 -15.6°
